{"data":{"norad_id":44622,"intl_designator":"2019-066A","name":"GAOFEN-10R","alt_names":[],"object_type":"PAYLOAD","status":"ACTIVE","operator":null,"country":"PRC","launch_date":"2019-10-04","launch_site_code":"TAISC","launch_vehicle":null,"mission":null,"orbit_class":"UNKNOWN","rcs_meters":null,"size_class":null,"mass_kg":null,"dimensions":null,"purposes":["earth_obs"],"wikipedia_slug":null,"has_3d_model":false,"image_url":null,"decayed_at":null,"tle_current":{"epoch":"2026-05-25T05:07:56.424000Z","epoch_age_seconds":49873,"freshness":"FRESH","line1":"1 44622U 19066A   26145.21384750  .00000982  00000+0  12757-3 0  9991","line2":"2 44622  98.0487  98.6283 0004858 197.9443 162.1599 14.83000745358971","mean_motion":14.83000745,"eccentricity":0.0004858,"inclination_deg":98.0487,"raan_deg":98.6283,"arg_perigee_deg":197.9443,"mean_anomaly_deg":162.1599,"bstar":0.00012757,"rev_number":35897,"period_min":97.100423236807,"perigee_km":616.4685851501,"apogee_km":623.26784701805,"semimajor_km":6998.0052160841,"source":"CELESTRAK","updated_at":"2026-05-25T13:38:12.832197Z"}}}